Regional Weather Roundup
Issued by NWS

Home | Current Version | Previous Version | Text Only | Print | Product List | Glossary Off
Versions: 1 2 3 4 5 6 7 8 9 10 11 12 13 14 15 16 17 18 19 20 21 22 23 24 25 26 27 28 29 30 31 32 33 34 35 36 37 38 39 40 41 42 43 44 45 46 47 48 49 50

000
ASUS43 KLMK 181210
RWRKY
KENTUCKY REGIONAL WEATHER ROUNDUP
NATIONAL WEATHER SERVICE LOUISVILLE KY
700 AM EST THU DEC 18 2014

NOTE "FAIR" INDICATES FEW OR NO CLOUDS BELOW 12,000 FEET
WITH NO SIGNIFICANT WEATHER AND/OR OBSTRUCTIONS TO VISIBILITY.

KYZ001>023-026-027-061>063-070>075-181300-
WESTERN AND SOUTH CENTRAL KENTUCKY

CITY           SKY/WX    TMP DP  RH WIND       PRES   REMARKS
PADUCAH        CLOUDY    33  31  92 NE5       30.25F WCI  29
HENDERSON      CLOUDY    30  25  80 NE5       30.28R WCI  25
OWENSBORO      MOCLDY    30  26  85 NE7       30.29R WCI  23
HOPKINSVILLE   CLOUDY    32  28  86 E5        30.25R WCI  27
BOWLING GREEN  CLOUDY    31  26  82 E6        30.26F WCI  25
GLASGOW        CLOUDY    30  26  84 CALM      30.25F
$$

KYZ024-025-028>034-038-045-046-053-181300-
NORTH CENTRAL KENTUCKY

CITY           SKY/WX    TMP DP  RH WIND       PRES   REMARKS
LOUISVILLE/SDF CLOUDY    30  22  72 NE3       30.28R
LOUISVILLE/LOU CLOUDY    29  21  72 NE3       30.28S
FORT KNOX      CLOUDY    28  23  81 NE6       30.24F WCI  22
$$

KYZ035>037-039>044-047>052-055>060-089>105-181300-
NORTHEAST KENTUCKY

CITY           SKY/WX    TMP DP  RH WIND       PRES   REMARKS
LEXINGTON      CLOUDY    28  22  78 N5        30.26R WCI  23
COVINGTON      CLOUDY    26  17  68 CALM      30.26R
FRANKFORT      CLOUDY    28  21  75 CALM      30.27R
$$

KYZ054-064>069-076>088-106>120-181300-
SOUTHEAST KENTUCKY

CITY           SKY/WX    TMP DP  RH WIND       PRES   REMARKS
JACKSON        CLOUDY    28  23  81 CALM      30.20F
LONDON         CLOUDY    28  24  85 CALM      30.22S
SOMERSET       MOCLDY    28  27  93 CALM      30.26R
MIDDLESBORO    CLOUDY    30  28  93 CALM      30.23S
MONTICELLO     PTSUNNY   30  27  89 CALM      30.27R
$$




USA.gov is the U.S. government's official web portal to all federal, state and local government web resources and services.